Elkins, WV

9:17 PM EDT on April 22, 2018 (GMT -0400)
Elkins-Randolph County

Weather History for KEKN - February, 2014

Change the Weather History Date:

Tuesday, February 4, 2014

  Actual Average Record
Temperature  
Mean Temperature 33 °F 30 °F  
Max Temperature 42 °F 41 °F 66 °F (1962)
Min Temperature 23 °F 20 °F -18 °F (1996)
Degree Days  
Heating Degree Days 32 35  
Month to date heating degree days 113 140  
Since 1 July heating degree days 3616 3541  
Cooling Degree Days 0 0  
Month to date cooling degree days 0 0  
Year to date cooling degree days 0 0  
Moisture  
Dew Point 28 °F    
Average Humidity 83    
Maximum Humidity 96    
Minimum Humidity 70    
Precipitation  
Precipitation 0.26 in 0.11 in 2.75 in (1932)
Month to date precipitation 1.31 0.43  
Year to date precipitation 3.46 3.66  
Snow  
Snow T in 0.80 in 5.50 in (1948)
Month to date snowfall 1.0 3.0  
Since 1 September snowfall 40.2 49.8  
Snow Depth T in    
Sea Level Pressure  
Sea Level Pressure 30.22 in    
Wind  
Wind Speed 1 mph (SE)    
Max Wind Speed 13 mph    
Max Gust Speed 19 mph    
Visibility 10 miles    
Events Rain    
T = Trace of Precipitation, MM = Missing Value Source: NWS Daily Summary

Daily Weather History Graph

Daily Weather History Graph

Search for Another Location

Airport or City:

Astronomy

Feb. 04, 2014 Rise Set
Actual Time 7:22 AM EST 5:44 PM EST
Civil Twilight 6:54 AM EST 6:12 PM EST
Nautical Twilight 6:23 AM EST 6:44 PM EST
Astronomical Twilight 5:52 AM EST 7:15 PM EST
Moon 10:03 AM EST (2/4) 11:33 PM EST (2/4)
Length of Visible Light 11h 17m
Length of Day
10h 21m
Waxing Crescent, 29% of the Moon is Illuminated
Feb 4
Waxing Crescent
Feb 6
First Quarter
Feb 14
Full
Feb 22
Last Quarter
Mar 1
New

Hourly Weather History & Observations

Time (EST) Temp. Windchill Dew Point Humidity Pressure Visibility Wind Dir Wind Speed Gust Speed Precip Events Conditions
12:51 AM 28.0 °F - 26.1 °F 92% 30.34 in 10.0 mi Calm Calm - N/A   Overcast
1:46 AM 26.6 °F - 24.8 °F 93% 30.25 in 10.0 mi Calm Calm - N/A   Scattered Clouds
1:51 AM 27.0 °F - 24.1 °F 89% 30.34 in 10.0 mi Calm Calm - N/A   Partly Cloudy
2:51 AM 25.0 °F - 21.0 °F 85% 30.35 in 9.0 mi Calm Calm - N/A   Clear
3:51 AM 23.0 °F - 21.0 °F 92% 30.33 in 8.0 mi Calm Calm - N/A   Partly Cloudy
4:30 AM 24.1 °F - 21.0 °F 88% 30.24 in 8.0 mi Calm Calm - N/A   Mostly Cloudy
4:51 AM 25.0 °F - 21.9 °F 88% 30.34 in 9.0 mi Calm Calm - N/A   Mostly Cloudy
5:18 AM 24.1 °F - 21.0 °F 88% 30.27 in 9.0 mi Calm Calm - N/A   Overcast
5:48 AM 24.8 °F - 21.2 °F 86% 30.28 in 10.0 mi Calm Calm - N/A   Overcast
5:51 AM 25.0 °F - 21.9 °F 88% 30.37 in 10.0 mi Calm Calm - N/A   Overcast
6:12 AM 26.1 °F - 23.0 °F 88% 30.27 in 9.0 mi Calm Calm - N/A   Overcast
6:51 AM 26.1 °F - 23.0 °F 88% 30.35 in 7.0 mi Calm Calm - N/A   Overcast
7:51 AM 26.1 °F - 23.0 °F 88% 30.36 in 7.0 mi Calm Calm - N/A   Overcast
8:51 AM 26.1 °F - 24.1 °F 92% 30.37 in 9.0 mi Calm Calm - N/A   Overcast
9:18 AM 27.0 °F - 25.0 °F 92% 30.28 in 10.0 mi Calm Calm - N/A   Overcast
9:51 AM 28.0 °F - 25.0 °F 88% 30.37 in 10.0 mi Calm Calm - N/A   Overcast
10:48 AM 30.2 °F - 26.6 °F 86% 30.27 in 10.0 mi Calm Calm - N/A   Scattered Clouds
10:51 AM 30.0 °F - 26.1 °F 85% 30.35 in 10.0 mi Calm Calm - N/A   Partly Cloudy
11:51 AM 32.0 °F - 28.0 °F 85% 30.34 in 10.0 mi Calm Calm - N/A   Partly Cloudy
12:33 PM 36.0 °F - 30.0 °F 79% 30.21 in 10.0 mi Calm Calm - N/A   Mostly Cloudy
12:43 PM 36.0 °F - 28.9 °F 76% 30.20 in 10.0 mi Calm Calm - N/A   Scattered Clouds
12:51 PM 36.0 °F - 30.0 °F 79% 30.26 in 10.0 mi Calm Calm - N/A   Scattered Clouds
1:51 PM 39.9 °F - 32.0 °F 73% 30.21 in 10.0 mi Calm Calm - N/A   Scattered Clouds
2:51 PM 41.0 °F - 34.0 °F 76% 30.18 in 10.0 mi Calm Calm - N/A   Mostly Cloudy
3:02 PM 41.0 °F 38.0 °F 33.1 °F 73% 30.11 in 10.0 mi SE 4.6 mph - N/A   Partly Cloudy
3:51 PM 41.0 °F 37.1 °F 32.0 °F 70% 30.19 in 10.0 mi SE 5.8 mph - N/A   Clear
4:51 PM 39.9 °F - 32.0 °F 73% 30.18 in 10.0 mi Calm Calm - N/A   Clear
5:51 PM 36.0 °F - 32.0 °F 86% 30.18 in 10.0 mi Calm Calm - N/A   Clear
6:51 PM 35.1 °F - 32.0 °F 89% 30.16 in 10.0 mi Calm Calm - N/A   Mostly Cloudy
7:51 PM 36.0 °F - 33.1 °F 89% 30.13 in 10.0 mi Calm Calm - N/A   Overcast
8:20 PM 36.0 °F - 32.0 °F 86% 30.02 in 10.0 mi Calm Calm - N/A   Overcast
8:49 PM 35.6 °F - 33.8 °F 93% 30.01 in 10.0 mi Calm Calm - N/A   Mostly Cloudy
8:51 PM 36.0 °F - 33.1 °F 89% 30.08 in 10.0 mi Calm Calm - N/A   Overcast
9:51 PM 36.0 °F - 33.1 °F 89% 30.05 in 10.0 mi Calm Calm - 0.00 in Rain Light Rain
10:20 PM 39.0 °F 33.4 °F 35.1 °F 86% 29.93 in 10.0 mi SE 8.1 mph - 0.01 in Rain Light Rain
10:51 PM 39.9 °F 34.5 °F 35.1 °F 83% 29.96 in 10.0 mi SSE 8.1 mph - 0.09 in Rain Light Rain
11:51 PM 39.9 °F 35.8 °F 36.0 °F 86% 29.93 in 10.0 mi Variable 5.8 mph - 0.17 in   Overcast